#datetime,building,power
2023-08-18T00:00:00,pth,1.20
2023-08-18T00:01:00,pth,1.20
2023-08-18T00:02:00,pth,1.20
2023-08-18T00:04:00,pth,2.40
2023-08-18T00:05:00,pth,1.20
2023-08-18T00:07:00,pth,2.40
2023-08-18T00:09:00,pth,2.40
2023-08-18T00:12:00,pth,2.40
2023-08-18T00:15:00,pth,2.40
2023-08-18T00:16:00,pth,2.40
2023-08-18T00:17:00,pth,1.20
2023-08-18T00:19:00,pth,2.40
2023-08-18T00:21:00,pth,2.40
2023-08-18T00:23:00,pth,2.40
2023-08-18T00:25:00,pth,2.40
2023-08-18T00:27:00,pth,1.20
2023-08-18T00:28:00,pth,1.20
2023-08-18T00:29:00,pth,1.20
2023-08-18T00:31:00,pth,2.40
2023-08-18T00:33:00,pth,2.40
2023-08-18T00:35:00,pth,2.40
2023-08-18T00:39:00,pth,2.40
2023-08-18T00:40:00,pth,2.40
2023-08-18T00:41:00,pth,1.20
2023-08-18T00:42:00,pth,1.20
2023-08-18T00:43:00,pth,1.20
2023-08-18T00:45:00,pth,1.20
2023-08-18T00:47:00,pth,2.40
2023-08-18T00:48:00,pth,1.20
2023-08-18T00:49:00,pth,1.20
2023-08-18T00:51:00,pth,2.40
2023-08-18T00:52:00,pth,1.20
2023-08-18T00:54:00,pth,1.20
2023-08-18T00:57:00,pth,3.60
2023-08-18T00:59:00,pth,1.20
2023-08-18T01:01:00,pth,2.40
2023-08-18T01:02:00,pth,1.20
2023-08-18T01:04:00,pth,2.40
2023-08-18T01:06:00,pth,1.20
2023-08-18T01:07:00,pth,1.20
2023-08-18T01:09:00,pth,2.40
2023-08-18T01:11:00,pth,2.40
2023-08-18T01:13:00,pth,2.40
2023-08-18T01:14:00,pth,1.20
2023-08-18T01:16:00,pth,1.20
2023-08-18T01:18:00,pth,2.40
2023-08-18T01:19:00,pth,1.20
2023-08-18T01:20:00,pth,1.20
2023-08-18T01:22:00,pth,2.40
2023-08-18T01:24:00,pth,2.40
2023-08-18T01:26:00,pth,1.20
2023-08-18T01:28:00,pth,2.40
2023-08-18T01:30:00,pth,2.40
2023-08-18T01:31:00,pth,1.20
2023-08-18T01:32:00,pth,1.20
2023-08-18T01:34:00,pth,1.20
2023-08-18T01:35:00,pth,1.20
2023-08-18T01:37:00,pth,2.40
2023-08-18T01:39:00,pth,2.40
2023-08-18T01:41:00,pth,2.40
2023-08-18T01:43:00,pth,2.40
2023-08-18T01:44:00,pth,1.20
2023-08-18T01:46:00,pth,2.40
2023-08-18T01:48:00,pth,2.40
2023-08-18T01:50:00,pth,3.60
2023-08-18T01:52:00,pth,2.40
2023-08-18T01:54:00,pth,2.40
2023-08-18T01:55:00,pth,1.20
2023-08-18T01:57:00,pth,2.40
2023-08-18T01:58:00,pth,1.20
2023-08-18T02:00:00,pth,2.40
2023-08-18T02:02:00,pth,2.40
2023-08-18T02:05:00,pth,2.40
2023-08-18T02:06:00,pth,1.20
2023-08-18T02:08:00,pth,1.20
2023-08-18T02:09:00,pth,2.40
2023-08-18T02:11:00,pth,2.40
2023-08-18T02:12:00,pth,1.20
2023-08-18T02:14:00,pth,2.40
2023-08-18T02:16:00,pth,1.20
2023-08-18T02:18:00,pth,2.40
2023-08-18T02:20:00,pth,2.40
2023-08-18T02:22:00,pth,2.40
2023-08-18T02:23:00,pth,1.20
2023-08-18T02:26:00,pth,2.40
2023-08-18T02:28:00,pth,2.40
2023-08-18T02:30:00,pth,2.40
2023-08-18T02:32:00,pth,2.40
2023-08-18T02:34:00,pth,2.40
2023-08-18T02:37:00,pth,2.40
2023-08-18T02:38:00,pth,1.20
2023-08-18T02:40:00,pth,2.40
2023-08-18T02:42:00,pth,2.40
2023-08-18T02:44:00,pth,2.40
2023-08-18T02:46:00,pth,1.20
2023-08-18T02:47:00,pth,1.20
2023-08-18T02:50:00,pth,2.40
2023-08-18T02:51:00,pth,2.40
2023-08-18T02:53:00,pth,2.40
2023-08-18T02:56:00,pth,2.40
2023-08-18T02:57:00,pth,2.40
2023-08-18T02:59:00,pth,1.20
2023-08-18T03:00:00,pth,1.20
2023-08-18T03:01:00,pth,1.20
2023-08-18T03:02:00,pth,1.20
2023-08-18T03:04:00,pth,2.40
2023-08-18T03:05:00,pth,1.20
2023-08-18T03:08:00,pth,3.60
2023-08-18T03:10:00,pth,1.20
2023-08-18T03:11:00,pth,1.20
2023-08-18T03:14:00,pth,3.60
2023-08-18T03:15:00,pth,1.20
2023-08-18T03:16:00,pth,1.20
2023-08-18T03:18:00,pth,2.40
2023-08-18T03:20:00,pth,1.20
2023-08-18T03:21:00,pth,1.20
2023-08-18T03:23:00,pth,2.40
2023-08-18T03:25:00,pth,2.40
2023-08-18T03:26:00,pth,1.20
2023-08-18T03:28:00,pth,2.40
2023-08-18T03:30:00,pth,1.20
2023-08-18T03:31:00,pth,1.20
2023-08-18T03:33:00,pth,2.40
2023-08-18T03:35:00,pth,1.20
2023-08-18T03:37:00,pth,2.40
2023-08-18T03:39:00,pth,2.40
2023-08-18T03:40:00,pth,1.20
2023-08-18T03:41:00,pth,1.20
2023-08-18T03:43:00,pth,1.20
2023-08-18T03:45:00,pth,2.40
2023-08-18T03:46:00,pth,1.20
2023-08-18T03:47:00,pth,1.20
2023-08-18T03:49:00,pth,2.40
2023-08-18T03:50:00,pth,1.20
2023-08-18T03:51:00,pth,1.20
2023-08-18T03:53:00,pth,1.20
2023-08-18T03:54:00,pth,1.20
2023-08-18T03:56:00,pth,2.40
2023-08-18T03:57:00,pth,1.20
2023-08-18T03:58:00,pth,1.20
2023-08-18T04:00:00,pth,2.40
2023-08-18T04:02:00,pth,2.40
2023-08-18T04:04:00,pth,1.20
2023-08-18T04:06:00,pth,2.40
2023-08-18T04:07:00,pth,1.20
2023-08-18T04:08:00,pth,1.20
2023-08-18T04:10:00,pth,2.40
2023-08-18T04:12:00,pth,2.40
2023-08-18T04:14:00,pth,1.20
2023-08-18T04:16:00,pth,2.40
2023-08-18T04:17:00,pth,1.20
2023-08-18T04:18:00,pth,1.20
2023-08-18T04:20:00,pth,2.40
2023-08-18T04:22:00,pth,2.40
2023-08-18T04:24:00,pth,1.20
2023-08-18T04:26:00,pth,2.40
2023-08-18T04:28:00,pth,1.20
2023-08-18T04:29:00,pth,2.40
2023-08-18T04:31:00,pth,2.40
2023-08-18T04:33:00,pth,1.20
2023-08-18T04:35:00,pth,2.40
2023-08-18T04:37:00,pth,2.40
2023-08-18T04:39:00,pth,1.20
2023-08-18T04:40:00,pth,1.20
2023-08-18T04:42:00,pth,2.40
2023-08-18T04:43:00,pth,1.20
2023-08-18T04:44:00,pth,1.20
2023-08-18T04:46:00,pth,2.40
2023-08-18T04:49:00,pth,1.20
2023-08-18T04:50:00,pth,2.40
2023-08-18T04:52:00,pth,2.40
2023-08-18T04:55:00,pth,3.60
2023-08-18T04:57:00,pth,1.20
2023-08-18T04:59:00,pth,2.40
2023-08-18T05:01:00,pth,2.40
2023-08-18T05:03:00,pth,2.40
2023-08-18T05:04:00,pth,1.20
2023-08-18T05:05:00,pth,1.20
2023-08-18T05:08:00,pth,2.40
2023-08-18T05:09:00,pth,1.20
2023-08-18T05:11:00,pth,2.40
2023-08-18T05:13:00,pth,2.40
2023-08-18T05:15:00,pth,1.20
2023-08-18T05:16:00,pth,1.20
2023-08-18T05:19:00,pth,2.40
2023-08-18T05:20:00,pth,2.40
2023-08-18T05:21:00,pth,1.20
2023-08-18T05:22:00,pth,1.20
2023-08-18T05:25:00,pth,1.20
2023-08-18T05:26:00,pth,2.40
2023-08-18T05:28:00,pth,1.20
2023-08-18T05:29:00,pth,1.20
2023-08-18T05:31:00,pth,2.40
2023-08-18T05:33:00,pth,2.40
2023-08-18T05:34:00,pth,1.20
2023-08-18T05:37:00,pth,2.40
2023-08-18T05:39:00,pth,2.40
2023-08-18T05:41:00,pth,1.20
2023-08-18T05:42:00,pth,1.20
2023-08-18T05:44:00,pth,2.40
2023-08-18T05:46:00,pth,2.40
2023-08-18T05:48:00,pth,2.40
2023-08-18T05:50:00,pth,2.40
2023-08-18T05:52:00,pth,1.20
2023-08-18T05:53:00,pth,1.20
2023-08-18T05:54:00,pth,1.20
2023-08-18T05:55:00,pth,1.20
2023-08-18T05:57:00,pth,2.40
2023-08-18T05:58:00,pth,1.20
2023-08-18T06:00:00,pth,1.20
2023-08-18T06:02:00,pth,2.40
2023-08-18T06:03:00,pth,1.20
2023-08-18T06:05:00,pth,1.20
2023-08-18T06:07:00,pth,2.40
2023-08-18T06:08:00,pth,1.20
2023-08-18T06:10:00,pth,1.20
2023-08-18T06:12:00,pth,2.40
2023-08-18T06:13:00,pth,1.20
2023-08-18T06:15:00,pth,2.40
2023-08-18T06:16:00,pth,1.20
2023-08-18T06:19:00,pth,2.40
2023-08-18T06:20:00,pth,1.20
2023-08-18T06:22:00,pth,1.20
2023-08-18T06:24:00,pth,2.40
2023-08-18T06:25:00,pth,1.20
2023-08-18T06:26:00,pth,1.20
2023-08-18T06:28:00,pth,2.40
2023-08-18T06:31:00,pth,2.40
2023-08-18T06:33:00,pth,2.40
2023-08-18T06:35:00,pth,1.20
2023-08-18T06:37:00,pth,2.40
2023-08-18T06:39:00,pth,2.40
2023-08-18T06:41:00,pth,2.40
2023-08-18T06:43:00,pth,1.20
2023-08-18T06:45:00,pth,2.40
2023-08-18T06:46:00,pth,1.20
2023-08-18T06:48:00,pth,2.40
2023-08-18T06:50:00,pth,2.40
2023-08-18T06:52:00,pth,2.40
2023-08-18T06:54:00,pth,1.20
2023-08-18T06:56:00,pth,1.20
2023-08-18T06:58:00,pth,1.20
2023-08-18T07:00:00,pth,1.20
2023-08-18T07:01:00,pth,1.20
2023-08-18T07:03:00,pth,2.40
2023-08-18T07:04:00,pth,1.20
2023-08-18T07:06:00,pth,1.20
2023-08-18T07:08:00,pth,2.40
2023-08-18T07:10:00,pth,2.40
2023-08-18T07:12:00,pth,1.20
2023-08-18T07:14:00,pth,2.40
2023-08-18T07:15:00,pth,1.20
2023-08-18T07:16:00,pth,1.20
2023-08-18T07:18:00,pth,1.20
2023-08-18T07:20:00,pth,2.40
2023-08-18T07:21:00,pth,7.20
2023-08-18T07:23:00,pth,12.00
2023-08-18T07:24:00,pth,7.20
2023-08-18T07:26:00,pth,12.00
2023-08-18T07:28:00,pth,8.40
2023-08-18T07:30:00,pth,9.60
2023-08-18T07:31:00,pth,8.40
2023-08-18T07:33:00,pth,6.00
2023-08-18T07:34:00,pth,6.00
2023-08-18T07:36:00,pth,7.20
2023-08-18T07:38:00,pth,4.80
2023-08-18T07:39:00,pth,1.20
2023-08-18T07:42:00,pth,1.20
2023-08-18T07:43:00,pth,2.40
2023-08-18T07:46:00,pth,2.40
2023-08-18T07:49:00,pth,1.20
2023-08-18T07:50:00,pth,1.20
2023-08-18T07:52:00,pth,1.20
2023-08-18T07:54:00,pth,2.40
2023-08-18T07:56:00,pth,1.20
2023-08-18T07:58:00,pth,1.20
2023-08-18T08:00:00,pth,1.20
2023-08-18T08:01:00,pth,1.20
2023-08-18T08:04:00,pth,2.40
2023-08-18T08:06:00,pth,1.20
2023-08-18T08:08:00,pth,1.20
2023-08-18T08:09:00,pth,1.20
2023-08-18T08:11:00,pth,1.20
2023-08-18T08:14:00,pth,2.40
2023-08-18T08:15:00,pth,1.20
2023-08-18T08:17:00,pth,1.20
2023-08-18T08:18:00,pth,1.20
2023-08-18T08:19:00,pth,1.20
2023-08-18T08:21:00,pth,1.20
2023-08-18T08:23:00,pth,2.40
2023-08-18T08:26:00,pth,2.40
2023-08-18T08:29:00,pth,1.20
2023-08-18T08:30:00,pth,1.20
2023-08-18T08:32:00,pth,1.20
2023-08-18T08:34:00,pth,1.20
2023-08-18T08:36:00,pth,1.20
2023-08-18T08:38:00,pth,1.20
2023-08-18T08:39:00,pth,1.20
2023-08-18T08:41:00,pth,1.20
2023-08-18T08:44:00,pth,1.20
2023-08-18T08:45:00,pth,1.20
2023-08-18T08:48:00,pth,1.20
2023-08-18T08:49:00,pth,1.20
2023-08-18T08:51:00,pth,1.20
2023-08-18T08:53:00,pth,1.20
2023-08-18T08:55:00,pth,1.20
2023-08-18T08:57:00,pth,1.20
2023-08-18T08:59:00,pth,1.20
2023-08-18T09:00:00,pth,1.20
2023-08-18T09:01:00,pth,1.20
2023-08-18T09:03:00,pth,1.20
2023-08-18T09:05:00,pth,1.20
2023-08-18T09:06:00,pth,1.20
2023-08-18T09:07:00,pth,1.20
2023-08-18T09:09:00,pth,2.40
2023-08-18T09:11:00,pth,1.20
2023-08-18T09:13:00,pth,2.40
2023-08-18T09:15:00,pth,1.20
2023-08-18T09:17:00,pth,2.40
2023-08-18T09:18:00,pth,1.20
2023-08-18T09:20:00,pth,1.20
2023-08-18T09:23:00,pth,2.40
2023-08-18T09:24:00,pth,1.20
2023-08-18T09:26:00,pth,2.40
2023-08-18T09:29:00,pth,1.20
2023-08-18T09:30:00,pth,2.40
2023-08-18T09:33:00,pth,2.40
2023-08-18T09:36:00,pth,2.40
2023-08-18T09:38:00,pth,1.20
2023-08-18T09:41:00,pth,2.40
2023-08-18T09:42:00,pth,1.20
2023-08-18T09:43:00,pth,1.20
2023-08-18T09:44:00,pth,1.20
2023-08-18T09:47:00,pth,2.40
2023-08-18T09:49:00,pth,1.20
2023-08-18T09:50:00,pth,1.20
2023-08-18T09:53:00,pth,2.40
2023-08-18T09:55:00,pth,1.20
2023-08-18T09:56:00,pth,1.20
2023-08-18T09:59:00,pth,2.40
2023-08-18T10:01:00,pth,1.20
2023-08-18T10:03:00,pth,1.20
2023-08-18T10:05:00,pth,1.20
2023-08-18T10:06:00,pth,1.20
2023-08-18T10:07:00,pth,1.20
2023-08-18T10:09:00,pth,1.20
2023-08-18T10:11:00,pth,2.40
2023-08-18T10:12:00,pth,1.20
2023-08-18T10:14:00,pth,1.20
2023-08-18T10:17:00,pth,1.20
2023-08-18T10:18:00,pth,2.40
2023-08-18T10:20:00,pth,1.20
2023-08-18T10:21:00,pth,1.20
2023-08-18T10:23:00,pth,1.20
2023-08-18T10:24:00,pth,1.20
2023-08-18T10:25:00,pth,1.20
2023-08-18T10:27:00,pth,1.20
2023-08-18T10:28:00,pth,1.20
2023-08-18T10:31:00,pth,2.40
2023-08-18T10:33:00,pth,1.20
2023-08-18T10:35:00,pth,1.20
2023-08-18T10:36:00,pth,1.20
2023-08-18T10:38:00,pth,1.20
2023-08-18T10:40:00,pth,2.40
2023-08-18T10:42:00,pth,1.20
2023-08-18T10:44:00,pth,1.20
2023-08-18T10:46:00,pth,2.40
2023-08-18T10:48:00,pth,1.20
2023-08-18T10:49:00,pth,1.20
2023-08-18T10:52:00,pth,2.40
2023-08-18T10:54:00,pth,1.20
2023-08-18T10:55:00,pth,1.20
2023-08-18T10:56:00,pth,1.20
2023-08-18T10:58:00,pth,1.20
2023-08-18T11:00:00,pth,1.20
2023-08-18T11:02:00,pth,2.40
2023-08-18T11:04:00,pth,1.20
2023-08-18T11:05:00,pth,1.20
2023-08-18T11:07:00,pth,1.20
2023-08-18T11:10:00,pth,2.40
2023-08-18T11:12:00,pth,2.40
2023-08-18T11:14:00,pth,1.20
2023-08-18T11:16:00,pth,1.20
2023-08-18T11:17:00,pth,1.20
2023-08-18T11:19:00,pth,1.20
2023-08-18T11:20:00,pth,1.20
2023-08-18T11:22:00,pth,1.20
2023-08-18T11:23:00,pth,1.20
2023-08-18T11:25:00,pth,1.20
2023-08-18T11:28:00,pth,2.40
2023-08-18T11:29:00,pth,1.20
2023-08-18T11:31:00,pth,1.20
2023-08-18T11:34:00,pth,2.40
2023-08-18T11:37:00,pth,1.20
2023-08-18T11:38:00,pth,1.20
2023-08-18T11:40:00,pth,1.20
2023-08-18T11:41:00,pth,1.20
2023-08-18T11:43:00,pth,1.20
2023-08-18T11:46:00,pth,1.20
2023-08-18T11:47:00,pth,1.20
2023-08-18T11:50:00,pth,1.20
2023-08-18T11:52:00,pth,1.20
2023-08-18T11:53:00,pth,1.20
2023-08-18T11:55:00,pth,1.20
2023-08-18T11:56:00,pth,1.20
2023-08-18T11:59:00,pth,1.20
2023-08-18T12:00:00,pth,1.20
2023-08-18T12:02:00,pth,1.20
2023-08-18T12:04:00,pth,1.20
2023-08-18T12:05:00,pth,1.20
2023-08-18T12:07:00,pth,1.20
2023-08-18T12:10:00,pth,1.20
2023-08-18T12:11:00,pth,1.20
2023-08-18T12:13:00,pth,1.20
2023-08-18T12:16:00,pth,1.20
2023-08-18T12:18:00,pth,1.20
2023-08-18T12:19:00,pth,1.20
2023-08-18T12:22:00,pth,1.20
2023-08-18T12:23:00,pth,1.20
2023-08-18T12:26:00,pth,1.20
2023-08-18T12:28:00,pth,1.20
2023-08-18T12:29:00,pth,1.20
2023-08-18T12:31:00,pth,1.20
2023-08-18T12:34:00,pth,1.20
2023-08-18T12:35:00,pth,1.20
2023-08-18T12:36:00,pth,1.20
2023-08-18T12:38:00,pth,1.20
2023-08-18T12:40:00,pth,1.20
2023-08-18T12:42:00,pth,1.20
2023-08-18T12:44:00,pth,1.20
2023-08-18T12:46:00,pth,1.20
2023-08-18T12:47:00,pth,1.20
2023-08-18T12:49:00,pth,1.20
2023-08-18T12:51:00,pth,1.20
2023-08-18T12:53:00,pth,1.20
2023-08-18T12:54:00,pth,1.20
2023-08-18T12:56:00,pth,1.20
2023-08-18T12:58:00,pth,2.40
2023-08-18T13:00:00,pth,1.20
2023-08-18T13:03:00,pth,1.20
2023-08-18T13:04:00,pth,1.20
2023-08-18T13:06:00,pth,1.20
2023-08-18T13:09:00,pth,1.20
2023-08-18T13:10:00,pth,1.20
2023-08-18T13:12:00,pth,1.20
2023-08-18T13:15:00,pth,1.20
2023-08-18T13:16:00,pth,1.20
2023-08-18T13:19:00,pth,1.20
2023-08-18T13:21:00,pth,1.20
2023-08-18T13:22:00,pth,1.20
2023-08-18T13:24:00,pth,1.20
2023-08-18T13:27:00,pth,1.20
2023-08-18T13:28:00,pth,1.20
2023-08-18T13:30:00,pth,1.20
2023-08-18T13:33:00,pth,1.20
2023-08-18T13:34:00,pth,1.20
2023-08-18T13:35:00,pth,1.20
2023-08-18T13:37:00,pth,1.20
2023-08-18T13:39:00,pth,1.20
2023-08-18T13:40:00,pth,1.20
2023-08-18T13:42:00,pth,2.40
2023-08-18T13:43:00,pth,1.20
2023-08-18T13:45:00,pth,2.40
2023-08-18T13:46:00,pth,1.20
2023-08-18T13:48:00,pth,1.20
2023-08-18T13:49:00,pth,1.20
2023-08-18T13:51:00,pth,2.40
2023-08-18T13:52:00,pth,1.20
2023-08-18T13:54:00,pth,2.40
2023-08-18T13:55:00,pth,1.20
2023-08-18T13:57:00,pth,1.20
2023-08-18T13:59:00,pth,1.20
2023-08-18T14:01:00,pth,1.20
2023-08-18T14:03:00,pth,1.20
2023-08-18T14:05:00,pth,1.20
2023-08-18T14:08:00,pth,1.20
2023-08-18T14:09:00,pth,1.20
2023-08-18T14:11:00,pth,1.20
2023-08-18T14:14:00,pth,2.40
2023-08-18T14:17:00,pth,1.20
2023-08-18T14:19:00,pth,1.20
2023-08-18T14:20:00,pth,1.20
2023-08-18T14:23:00,pth,1.20
2023-08-18T14:26:00,pth,1.20
2023-08-18T14:27:00,pth,1.20
2023-08-18T14:28:00,pth,1.20
2023-08-18T14:30:00,pth,1.20
2023-08-18T14:32:00,pth,1.20
2023-08-18T14:33:00,pth,1.20
2023-08-18T14:35:00,pth,1.20
2023-08-18T14:36:00,pth,1.20
2023-08-18T14:39:00,pth,1.20
2023-08-18T14:41:00,pth,1.20
2023-08-18T14:44:00,pth,1.20
2023-08-18T14:45:00,pth,1.20
2023-08-18T14:47:00,pth,2.40
2023-08-18T14:50:00,pth,1.20
2023-08-18T14:52:00,pth,1.20
2023-08-18T14:53:00,pth,1.20
2023-08-18T14:56:00,pth,1.20
2023-08-18T14:57:00,pth,1.20
2023-08-18T14:59:00,pth,1.20
2023-08-18T15:02:00,pth,1.20
2023-08-18T15:03:00,pth,1.20
2023-08-18T15:06:00,pth,1.20
2023-08-18T15:08:00,pth,1.20
2023-08-18T15:09:00,pth,1.20
2023-08-18T15:11:00,pth,1.20
2023-08-18T15:12:00,pth,1.20
2023-08-18T15:14:00,pth,1.20
2023-08-18T15:16:00,pth,1.20
2023-08-18T15:20:00,pth,2.40
2023-08-18T15:22:00,pth,1.20
2023-08-18T15:24:00,pth,1.20
2023-08-18T15:26:00,pth,1.20
2023-08-18T15:28:00,pth,1.20
2023-08-18T15:29:00,pth,1.20
2023-08-18T15:32:00,pth,1.20
2023-08-18T15:33:00,pth,1.20
2023-08-18T15:35:00,pth,1.20
2023-08-18T15:36:00,pth,1.20
2023-08-18T15:38:00,pth,1.20
2023-08-18T15:40:00,pth,1.20
2023-08-18T15:44:00,pth,2.40
2023-08-18T15:46:00,pth,1.20
2023-08-18T15:48:00,pth,1.20
2023-08-18T15:50:00,pth,1.20
2023-08-18T15:52:00,pth,1.20
2023-08-18T15:53:00,pth,1.20
2023-08-18T15:55:00,pth,1.20
2023-08-18T15:57:00,pth,1.20
2023-08-18T15:59:00,pth,1.20
2023-08-18T16:01:00,pth,1.20
2023-08-18T16:03:00,pth,1.20
2023-08-18T16:06:00,pth,1.20
2023-08-18T16:07:00,pth,1.20
2023-08-18T16:09:00,pth,1.20
2023-08-18T16:10:00,pth,1.20
2023-08-18T16:13:00,pth,1.20
2023-08-18T16:15:00,pth,1.20
2023-08-18T16:17:00,pth,2.40
2023-08-18T16:19:00,pth,1.20
2023-08-18T16:21:00,pth,1.20
2023-08-18T16:25:00,pth,1.20
2023-08-18T16:26:00,pth,2.40
2023-08-18T16:28:00,pth,1.20
2023-08-18T16:31:00,pth,1.20
2023-08-18T16:32:00,pth,1.20
2023-08-18T16:33:00,pth,1.20
2023-08-18T16:35:00,pth,1.20
2023-08-18T16:38:00,pth,2.40
2023-08-18T16:40:00,pth,1.20
2023-08-18T16:41:00,pth,1.20
2023-08-18T16:43:00,pth,1.20
2023-08-18T16:45:00,pth,1.20
2023-08-18T16:47:00,pth,1.20
2023-08-18T16:50:00,pth,1.20
2023-08-18T16:51:00,pth,1.20
2023-08-18T16:53:00,pth,1.20
2023-08-18T16:55:00,pth,1.20
2023-08-18T16:57:00,pth,1.20
2023-08-18T16:59:00,pth,1.20
2023-08-18T17:01:00,pth,1.20
2023-08-18T17:02:00,pth,1.20
2023-08-18T17:04:00,pth,1.20
2023-08-18T17:07:00,pth,1.20
2023-08-18T17:09:00,pth,1.20
2023-08-18T17:11:00,pth,2.40
2023-08-18T17:13:00,pth,1.20
2023-08-18T17:16:00,pth,1.20
2023-08-18T17:17:00,pth,1.20
2023-08-18T17:19:00,pth,1.20
2023-08-18T17:21:00,pth,1.20
2023-08-18T17:22:00,pth,1.20
2023-08-18T17:24:00,pth,1.20
2023-08-18T17:27:00,pth,2.40
2023-08-18T17:30:00,pth,1.20
2023-08-18T17:31:00,pth,1.20
2023-08-18T17:33:00,pth,1.20
2023-08-18T17:36:00,pth,1.20
2023-08-18T17:37:00,pth,1.20
2023-08-18T17:40:00,pth,1.20
2023-08-18T17:42:00,pth,1.20
2023-08-18T17:43:00,pth,1.20
2023-08-18T17:45:00,pth,1.20
2023-08-18T17:48:00,pth,1.20
2023-08-18T17:49:00,pth,1.20
2023-08-18T17:52:00,pth,2.40
2023-08-18T17:54:00,pth,1.20
2023-08-18T17:56:00,pth,1.20
2023-08-18T17:58:00,pth,1.20
2023-08-18T18:01:00,pth,1.20
2023-08-18T18:03:00,pth,1.20
2023-08-18T18:06:00,pth,2.40
2023-08-18T18:07:00,pth,1.20
2023-08-18T18:11:00,pth,1.20
2023-08-18T18:12:00,pth,2.40
2023-08-18T18:15:00,pth,1.20
2023-08-18T18:16:00,pth,1.20
2023-08-18T18:18:00,pth,1.20
2023-08-18T18:20:00,pth,1.20
2023-08-18T18:22:00,pth,1.20
2023-08-18T18:24:00,pth,1.20
2023-08-18T18:26:00,pth,1.20
2023-08-18T18:30:00,pth,1.20
2023-08-18T18:31:00,pth,2.40
2023-08-18T18:33:00,pth,1.20
2023-08-18T18:36:00,pth,1.20
2023-08-18T18:37:00,pth,1.20
2023-08-18T18:39:00,pth,1.20
2023-08-18T18:42:00,pth,1.20
2023-08-18T18:44:00,pth,1.20
2023-08-18T18:46:00,pth,1.20
2023-08-18T18:48:00,pth,1.20
2023-08-18T18:49:00,pth,1.20
2023-08-18T18:50:00,pth,1.20
2023-08-18T18:54:00,pth,2.40
2023-08-18T18:56:00,pth,1.20
2023-08-18T18:58:00,pth,1.20
2023-08-18T19:00:00,pth,1.20
2023-08-18T19:01:00,pth,1.20
2023-08-18T19:04:00,pth,1.20
2023-08-18T19:06:00,pth,1.20
2023-08-18T19:07:00,pth,1.20
2023-08-18T19:10:00,pth,1.20
2023-08-18T19:12:00,pth,2.40
2023-08-18T19:15:00,pth,3.60
2023-08-18T19:16:00,pth,1.20
2023-08-18T19:18:00,pth,6.00
2023-08-18T19:19:00,pth,7.20
2023-08-18T19:21:00,pth,12.00
2023-08-18T19:23:00,pth,2.40
2023-08-18T19:24:00,pth,8.40
2023-08-18T19:26:00,pth,8.40
2023-08-18T19:29:00,pth,8.40
2023-08-18T19:30:00,pth,8.40
2023-08-18T19:32:00,pth,8.40
2023-08-18T19:33:00,pth,2.40
2023-08-18T19:35:00,pth,9.60
2023-08-18T19:37:00,pth,2.40
2023-08-18T19:38:00,pth,8.40
2023-08-18T19:39:00,pth,4.80
2023-08-18T19:41:00,pth,7.20
2023-08-18T19:43:00,pth,8.40
2023-08-18T19:44:00,pth,3.60
2023-08-18T19:46:00,pth,3.60
2023-08-18T19:47:00,pth,2.40
2023-08-18T19:48:00,pth,8.40
2023-08-18T19:49:00,pth,2.40
2023-08-18T19:51:00,pth,8.40
2023-08-18T19:53:00,pth,4.80
2023-08-18T19:54:00,pth,9.60
2023-08-18T19:56:00,pth,3.60
2023-08-18T19:57:00,pth,1.20
2023-08-18T19:59:00,pth,10.80
2023-08-18T20:01:00,pth,13.20
2023-08-18T20:03:00,pth,13.20
2023-08-18T20:05:00,pth,13.20
2023-08-18T20:07:00,pth,13.20
2023-08-18T20:09:00,pth,6.00
2023-08-18T20:11:00,pth,13.20
2023-08-18T20:12:00,pth,13.20
2023-08-18T20:14:00,pth,10.80
2023-08-18T20:16:00,pth,3.60
2023-08-18T20:18:00,pth,13.20
2023-08-18T20:19:00,pth,8.40
2023-08-18T20:20:00,pth,6.00
2023-08-18T20:21:00,pth,1.20
2023-08-18T20:23:00,pth,12.00
2023-08-18T20:25:00,pth,8.40
2023-08-18T20:27:00,pth,7.20
2023-08-18T20:29:00,pth,6.00
2023-08-18T20:31:00,pth,9.60
2023-08-18T20:33:00,pth,2.40
2023-08-18T20:35:00,pth,2.40
2023-08-18T20:37:00,pth,1.20
2023-08-18T20:39:00,pth,2.40
2023-08-18T20:41:00,pth,1.20
2023-08-18T20:42:00,pth,1.20
2023-08-18T20:43:00,pth,1.20
2023-08-18T20:45:00,pth,2.40
2023-08-18T20:48:00,pth,2.40
2023-08-18T20:49:00,pth,1.20
2023-08-18T20:51:00,pth,1.20
2023-08-18T20:53:00,pth,1.20
2023-08-18T20:54:00,pth,1.20
2023-08-18T20:56:00,pth,2.40
2023-08-18T20:59:00,pth,1.20
2023-08-18T21:00:00,pth,1.20
2023-08-18T21:01:00,pth,1.20
2023-08-18T21:03:00,pth,2.40
2023-08-18T21:05:00,pth,1.20
2023-08-18T21:06:00,pth,1.20
2023-08-18T21:07:00,pth,1.20
2023-08-18T21:09:00,pth,2.40
2023-08-18T21:11:00,pth,1.20
2023-08-18T21:13:00,pth,2.40
2023-08-18T21:15:00,pth,1.20
2023-08-18T21:17:00,pth,2.40
2023-08-18T21:19:00,pth,1.20
2023-08-18T21:20:00,pth,1.20
2023-08-18T21:21:00,pth,1.20
2023-08-18T21:23:00,pth,1.20
2023-08-18T21:25:00,pth,2.40
2023-08-18T21:27:00,pth,1.20
2023-08-18T21:28:00,pth,1.20
2023-08-18T21:30:00,pth,2.40
2023-08-18T21:31:00,pth,1.20
2023-08-18T21:33:00,pth,1.20
2023-08-18T21:34:00,pth,1.20
2023-08-18T21:35:00,pth,1.20
2023-08-18T21:37:00,pth,1.20
2023-08-18T21:38:00,pth,1.20
2023-08-18T21:40:00,pth,2.40
2023-08-18T21:42:00,pth,1.20
2023-08-18T21:44:00,pth,2.40
2023-08-18T21:45:00,pth,1.20
2023-08-18T21:47:00,pth,1.20
2023-08-18T21:48:00,pth,1.20
2023-08-18T21:50:00,pth,1.20
2023-08-18T21:51:00,pth,1.20
2023-08-18T21:53:00,pth,1.20
2023-08-18T21:54:00,pth,1.20
2023-08-18T21:56:00,pth,2.40
2023-08-18T21:58:00,pth,1.20
2023-08-18T22:00:00,pth,2.40
2023-08-18T22:02:00,pth,1.20
2023-08-18T22:03:00,pth,1.20
2023-08-18T22:05:00,pth,2.40
2023-08-18T22:08:00,pth,2.40
2023-08-18T22:09:00,pth,1.20
2023-08-18T22:11:00,pth,1.20
2023-08-18T22:13:00,pth,2.40
2023-08-18T22:15:00,pth,1.20
2023-08-18T22:17:00,pth,2.40
2023-08-18T22:20:00,pth,2.40
2023-08-18T22:21:00,pth,1.20
2023-08-18T22:23:00,pth,1.20
2023-08-18T22:25:00,pth,2.40
2023-08-18T22:27:00,pth,2.40
2023-08-18T22:29:00,pth,1.20
2023-08-18T22:30:00,pth,1.20
2023-08-18T22:32:00,pth,1.20
2023-08-18T22:33:00,pth,1.20
2023-08-18T22:35:00,pth,2.40
2023-08-18T22:37:00,pth,1.20
2023-08-18T22:39:00,pth,2.40
2023-08-18T22:41:00,pth,1.20
2023-08-18T22:43:00,pth,2.40
2023-08-18T22:45:00,pth,1.20
2023-08-18T22:47:00,pth,2.40
2023-08-18T22:50:00,pth,2.40
2023-08-18T22:52:00,pth,1.20
2023-08-18T22:54:00,pth,2.40
2023-08-18T22:55:00,pth,1.20
2023-08-18T22:58:00,pth,2.40
2023-08-18T23:00:00,pth,1.20
2023-08-18T23:02:00,pth,2.40
2023-08-18T23:04:00,pth,1.20
2023-08-18T23:05:00,pth,1.20
2023-08-18T23:06:00,pth,1.20
2023-08-18T23:08:00,pth,1.20
2023-08-18T23:10:00,pth,2.40
2023-08-18T23:12:00,pth,1.20
2023-08-18T23:14:00,pth,2.40
2023-08-18T23:16:00,pth,1.20
2023-08-18T23:17:00,pth,1.20
2023-08-18T23:19:00,pth,2.40
2023-08-18T23:22:00,pth,2.40
2023-08-18T23:24:00,pth,2.40
2023-08-18T23:27:00,pth,2.40
2023-08-18T23:30:00,pth,2.40
2023-08-18T23:31:00,pth,1.20
2023-08-18T23:33:00,pth,1.20
2023-08-18T23:34:00,pth,1.20
2023-08-18T23:36:00,pth,1.20
2023-08-18T23:37:00,pth,1.20
2023-08-18T23:38:00,pth,1.20
2023-08-18T23:39:00,pth,1.20
2023-08-18T23:41:00,pth,1.20
2023-08-18T23:42:00,pth,1.20
2023-08-18T23:45:00,pth,2.40
2023-08-18T23:46:00,pth,1.20
2023-08-18T23:48:00,pth,1.20
2023-08-18T23:49:00,pth,1.20
2023-08-18T23:51:00,pth,1.20
2023-08-18T23:52:00,pth,1.20
2023-08-18T23:54:00,pth,2.40
2023-08-18T23:56:00,pth,1.20
2023-08-18T23:57:00,pth,1.20
2023-08-18T23:59:00,pth,1.20
